| time (UTC) | temp C | wind direction | speed KPH | gust KPH | rain 1hr cm | rain 24hr cm | rain mn cm | humidity % | barometer mb |
| 20260502130512 | 3 | 0 | 0.0 | 1.6 | 0.00 | 0.00 | 0.00 | 75 | 1020.1 |
| 20260502123510 | 0 | 0 | 0.0 | 1.6 | 0.00 | 0.00 | 0.00 | 86 | 1020.1 |
| 20260502123026 | 0 | 0 | 0.0 | 0.0 | 0.00 | 0.00 | 0.00 | 86 | 1020.1 |
| 20260502122512 | 0 | 0 | 0.0 | 0.0 | 0.00 | 0.00 | 0.00 | 86 | 1020.1 |
| 20260502122009 | 0 | 0 | 0.0 | 0.0 | 0.00 | 0.00 | 0.00 | 87 | 1020.2 |
| 20260502121541 | -1 | 0 | 0.0 | 0.0 | 0.00 | 0.00 | 0.00 | 88 | 1020.3 |
| 20260502121009 | -1 | 0 | 0.0 | 0.0 | 0.00 | 0.00 | 0.00 | 89 | 1020.3 |
| 20260502120508 | -2 | 0 | 0.0 | 0.0 | 0.00 | 0.00 | 0.00 | 88 | 1020.4 |
| 20260502115514 | -2 | 0 | 0.0 | 0.0 | 0.00 | 0.00 | 0.00 | 89 | 1020.3 |
| 20260502115013 | -2 | 0 | 0.0 | 0.0 | 0.00 | 0.00 | 0.00 | 89 | 1020.2 |
| 20260502114528 | -2 | 0 | 0.0 | 0.0 | 0.00 | 0.00 | 0.00 | 89 | 1020.1 |
| 20260502114008 | -2 | 0 | 0.0 | 0.0 | 0.00 | 0.00 | 0.00 | 88 | 1020.0 |
| 20260502113511 | -2 | 0 | 0.0 | 0.0 | 0.00 | 0.00 | 0.00 | 89 | 1020.1 |
| 20260502113030 | -2 | 0 | 0.0 | 0.0 | 0.00 | 0.00 | 0.00 | 89 | 1020.1 |
| 20260502112510 | -2 | 0 | 0.0 | 0.0 | 0.00 | 0.00 | 0.00 | 88 | 1020.1 |
| 20260502112011 | -2 | 0 | 0.0 | 0.0 | 0.00 | 0.00 | 0.00 | 89 | 1020.1 |
| 20260502111527 | -3 | 0 | 0.0 | 0.0 | 0.00 | 0.00 | 0.00 | 87 | 1020.2 |
| 20260502111010 | -2 | 0 | 0.0 | 0.0 | 0.00 | 0.00 | 0.00 | 87 | 1020.2 |
| 20260502110509 | -2 | 0 | 0.0 | 0.0 | 0.00 | 0.00 | 0.00 | 88 | 1020.2 |
| 20260502110030 | -2 | 0 | 0.0 | 0.0 | 0.00 | 0.00 | 0.00 | 88 | 1020.2 |
| 20260502105512 | -2 | 0 | 0.0 | 0.0 | 0.00 | 0.00 | 0.00 | 87 | 1020.3 |
| 20260502105011 | -2 | 0 | 0.0 | 0.0 | 0.00 | 0.00 | 0.00 | 87 | 1020.3 |
| 20260502104541 | -2 | 0 | 0.0 | 0.0 | 0.00 | 0.00 | 0.00 | 88 | 1020.3 |
| 20260502104011 | -2 | 0 | 0.0 | 0.0 | 0.00 | 0.00 | 0.00 | 88 | 1020.3 |
| 20260502103508 | -2 | 0 | 0.0 | 0.0 | 0.00 | 0.00 | 0.00 | 88 | 1020.4 |
| 20260502103029 | -2 | 0 | 0.0 | 0.0 | 0.00 | 0.00 | 0.00 | 88 | 1020.4 |
| 20260502102509 | -3 | 0 | 0.0 | 0.0 | 0.00 | 0.00 | 0.00 | 87 | 1020.5 |
| 20260502102014 | -2 | 0 | 0.0 | 0.0 | 0.00 | 0.00 | 0.00 | 87 | 1020.5 |
| 20260502101528 | -2 | 0 | 0.0 | 0.0 | 0.00 | 0.00 | 0.00 | 87 | 1020.5 |
| 20260502101011 | -2 | 0 | 0.0 | 0.0 | 0.00 | 0.00 | 0.00 | 87 | 1020.5 |
| 20260502100510 | -2 | 0 | 0.0 | 0.0 | 0.00 | 0.00 | 0.00 | 86 | 1020.5 |
| 20260502091528 | -1 | 0 | 0.0 | 0.0 | 0.00 | 0.00 | 0.00 | 83 | 1020.5 |
| 20260502091018 | -1 | 0 | 0.0 | 0.0 | 0.00 | 0.00 | 0.00 | 84 | 1020.4 |
| 20260502090508 | -1 | 0 | 0.0 | 0.0 | 0.00 | 0.00 | 0.00 | 85 | 1020.5 |
| 20260502071009 | 0 | 0 | 0.0 | 0.0 | 0.00 | 0.00 | 0.00 | 80 | 1020.8 |
| 20260502070512 | 0 | 0 | 0.0 | 0.0 | 0.00 | 0.00 | 0.00 | 80 | 1020.8 |
| 20260502070028 | 0 | 0 | 0.0 | 0.0 | 0.00 | 0.00 | 0.00 | 80 | 1020.8 |
| 20260502065508 | 0 | 0 | 0.0 | 0.0 | 0.00 | 0.00 | 0.00 | 79 | 1020.8 |
| 20260502065012 | 0 | 0 | 0.0 | 0.0 | 0.00 | 0.00 | 0.00 | 79 | 1020.8 |
| 20260502064529 | 0 | 0 | 0.0 | 0.0 | 0.00 | 0.00 | 0.00 | 78 | 1020.8 |
| 20260502064012 | 0 | 0 | 0.0 | 0.0 | 0.00 | 0.00 | 0.00 | 79 | 1020.9 |
| 20260502063511 | 0 | 0 | 0.0 | 0.0 | 0.00 | 0.00 | 0.00 | 80 | 1020.9 |
| 20260502063028 | 0 | 0 | 0.0 | 0.0 | 0.00 | 0.00 | 0.00 | 81 | 1020.9 |
| 20260502062511 | 0 | 0 | 0.0 | 0.0 | 0.00 | 0.00 | 0.00 | 80 | 1020.9 |
| 20260502062010 | 0 | 0 | 0.0 | 0.0 | 0.00 | 0.00 | 0.00 | 78 | 1020.9 |
| 20260502061527 | 0 | 0 | 0.0 | 0.0 | 0.00 | 0.00 | 0.00 | 77 | 1020.9 |
| 20260502061011 | 0 | 0 | 0.0 | 0.0 | 0.00 | 0.00 | 0.00 | 77 | 1020.9 |
| 20260502060509 | 0 | 0 | 0.0 | 0.0 | 0.00 | 0.00 | 0.00 | 78 | 1020.9 |
| 20260502060028 | 0 | 0 | 0.0 | 0.0 | 0.00 | 0.00 | 0.00 | 78 | 1020.9 |
| 20260502055508 | 0 | 0 | 0.0 | 0.0 | 0.00 | 0.00 | 0.00 | 76 | 1020.9 |
| 20260502055015 | 0 | 0 | 0.0 | 0.0 | 0.00 | 0.00 | 0.00 | 76 | 1020.9 |
| 20260502054530 | 1 | 0 | 0.0 | 0.0 | 0.00 | 0.00 | 0.00 | 76 | 1020.9 |
| 20260502054011 | 1 | 0 | 0.0 | 0.0 | 0.00 | 0.00 | 0.00 | 76 | 1020.9 |
| 20260502053510 | 1 | 0 | 0.0 | 0.0 | 0.00 | 0.00 | 0.00 | 75 | 1020.8 |
| 20260502053027 | 1 | 0 | 0.0 | 0.0 | 0.00 | 0.00 | 0.00 | 73 | 1020.9 |
| 20260502052511 | 1 | 0 | 0.0 | 0.0 | 0.00 | 0.00 | 0.00 | 73 | 1020.8 |
| 20260502052010 | 1 | 0 | 0.0 | 0.0 | 0.00 | 0.00 | 0.00 | 74 | 1020.8 |
| 20260502051547 | 1 | 0 | 0.0 | 0.0 | 0.00 | 0.00 | 0.00 | 75 | 1020.8 |
| 20260502051014 | 1 | 0 | 0.0 | 0.0 | 0.00 | 0.00 | 0.00 | 74 | 1020.8 |
| 20260502050511 | 1 | 0 | 0.0 | 0.0 | 0.00 | 0.00 | 0.00 | 74 | 1020.9 |
| 20260502050028 | 1 | 0 | 0.0 | 0.0 | 0.00 | 0.00 | 0.00 | 74 | 1020.9 |
| 20260502045508 | 1 | 0 | 0.0 | 0.0 | 0.00 | 0.00 | 0.00 | 72 | 1020.8 |
| 20260502045011 | 2 | 0 | 0.0 | 0.0 | 0.00 | 0.00 | 0.00 | 71 | 1020.9 |
| 20260502044528 | 2 | 0 | 0.0 | 0.0 | 0.00 | 0.00 | 0.00 | 71 | 1020.9 |
| 20260502044008 | 2 | 0 | 0.0 | 0.0 | 0.00 | 0.00 | 0.00 | 71 | 1021.0 |
| 20260502043510 | 2 | 0 | 0.0 | 0.0 | 0.00 | 0.00 | 0.00 | 70 | 1021.0 |
| 20260502043029 | 2 | 0 | 0.0 | 0.0 | 0.00 | 0.00 | 0.00 | 70 | 1020.9 |
| 20260502042512 | 2 | 0 | 0.0 | 0.0 | 0.00 | 0.00 | 0.00 | 71 | 1020.8 |
| 20260502042010 | 2 | 0 | 0.0 | 0.0 | 0.00 | 0.00 | 0.00 | 70 | 1020.8 |
| 20260502041529 | 2 | 0 | 0.0 | 0.0 | 0.00 | 0.00 | 0.00 | 70 | 1020.8 |
| 20260502041007 | 2 | 0 | 0.0 | 0.0 | 0.00 | 0.00 | 0.00 | 69 | 1020.9 |
| 20260502040512 | 2 | 0 | 0.0 | 0.0 | 0.00 | 0.00 | 0.00 | 69 | 1020.8 |
| 20260502040028 | 2 | 0 | 0.0 | 0.0 | 0.00 | 0.00 | 0.00 | 69 | 1020.7 |
| 20260502035509 | 3 | 0 | 0.0 | 0.0 | 0.00 | 0.00 | 0.00 | 69 | 1020.7 |
| 20260502035010 | 3 | 0 | 0.0 | 0.0 | 0.00 | 0.00 | 0.00 | 68 | 1020.7 |
| 20260502034537 | 3 | 0 | 0.0 | 0.0 | 0.00 | 0.00 | 0.00 | 68 | 1020.7 |
| 20260502034008 | 3 | 0 | 0.0 | 0.0 | 0.00 | 0.00 | 0.00 | 68 | 1020.6 |
| 20260502033509 | 3 | 0 | 0.0 | 0.0 | 0.00 | 0.00 | 0.00 | 67 | 1020.6 |
| 20260502033042 | 3 | 0 | 0.0 | 0.0 | 0.00 | 0.00 | 0.00 | 67 | 1020.6 |
| 20260502032507 | 3 | 0 | 0.0 | 0.0 | 0.00 | 0.00 | 0.00 | 68 | 1020.4 |
| 20260502032010 | 3 | 0 | 0.0 | 0.0 | 0.00 | 0.00 | 0.00 | 68 | 1020.3 |
| 20260502031527 | 3 | 0 | 0.0 | 0.0 | 0.00 | 0.00 | 0.00 | 67 | 1020.3 |
| 20260502031010 | 3 | 0 | 0.0 | 0.0 | 0.00 | 0.00 | 0.00 | 65 | 1020.3 |
| 20260502030510 | 4 | 0 | 0.0 | 0.0 | 0.00 | 0.00 | 0.00 | 65 | 1020.3 |
| 20260502030027 | 4 | 0 | 0.0 | 0.0 | 0.00 | 0.00 | 0.00 | 64 | 1020.3 |
| 20260502025510 | 5 | 0 | 0.0 | 0.0 | 0.00 | 0.00 | 0.00 | 62 | 1020.2 |
| 20260502025009 | 5 | 0 | 0.0 | 0.0 | 0.00 | 0.00 | 0.00 | 61 | 1020.2 |
| 20260502024531 | 5 | 0 | 0.0 | 0.0 | 0.00 | 0.00 | 0.00 | 61 | 1020.2 |
| 20260502024010 | 5 | 0 | 0.0 | 0.0 | 0.00 | 0.00 | 0.00 | 59 | 1020.1 |
| 20260502023512 | 6 | 0 | 0.0 | 0.0 | 0.00 | 0.00 | 0.00 | 56 | 1020.1 |
| 20260502023029 | 6 | 0 | 0.0 | 0.0 | 0.00 | 0.00 | 0.00 | 54 | 1020.0 |
| 20260502022506 | 6 | 0 | 0.0 | 0.0 | 0.00 | 0.00 | 0.00 | 52 | 1020.0 |
| 20260502022007 | 7 | 0 | 0.0 | 0.0 | 0.00 | 0.00 | 0.00 | 50 | 1020.0 |
| 20260502021527 | 7 | 0 | 0.0 | 0.0 | 0.00 | 0.00 | 0.00 | 48 | 1020.0 |
| 20260502021008 | 7 | 0 | 0.0 | 0.0 | 0.00 | 0.00 | 0.00 | 48 | 1019.9 |
| 20260502020510 | 7 | 0 | 0.0 | 1.6 | 0.00 | 0.00 | 0.00 | 47 | 1019.9 |
| 20260502020028 | 8 | 0 | 0.0 | 1.6 | 0.00 | 0.00 | 0.00 | 46 | 1019.9 |
| 20260502015508 | 8 | 0 | 0.0 | 1.6 | 0.00 | 0.00 | 0.00 | 46 | 1019.8 |
| 20260502015012 | 8 | 0 | 0.0 | 3.2 | 0.00 | 0.00 | 0.00 | 46 | 1019.8 |
| 20260502014531 | 8 | 338 | 0.0 | 3.2 | 0.00 | 0.00 | 0.00 | 47 | 1019.7 |
| 20260502014009 | 8 | 338 | 1.6 | 6.4 | 0.00 | 0.00 | 0.00 | 46 | 1019.8 |
| 20260502013509 | 8 | 335 | 3.2 | 6.4 | 0.00 | 0.00 | 0.00 | 45 | 1019.6 |
| 20260502013028 | 8 | 330 | 3.2 | 4.8 | 0.00 | 0.00 | 0.00 | 46 | 1019.5 |
| 20260502012507 | 9 | 326 | 1.6 | 4.8 | 0.00 | 0.00 | 0.00 | 45 | 1019.5 |
| 20260502012012 | 9 | 323 | 1.6 | 4.8 | 0.00 | 0.00 | 0.00 | 44 | 1019.5 |
| 20260502011530 | 10 | 331 | 1.6 | 6.4 | 0.00 | 0.00 | 0.00 | 42 | 1019.5 |
| 20260502011012 | 10 | 335 | 1.6 | 6.4 | 0.00 | 0.00 | 0.00 | 41 | 1019.4 |
| 20260502010508 | 10 | 340 | 3.2 | 8.0 | 0.00 | 0.00 | 0.00 | 40 | 1019.4 |
| 20260502010030 | 10 | 338 | 3.2 | 8.0 | 0.00 | 0.00 | 0.00 | 40 | 1019.2 |
| 20260502005511 | 10 | 336 | 3.2 | 11.3 | 0.00 | 0.00 | 0.00 | 41 | 1019.2 |
| 20260502005010 | 10 | 30 | 4.8 | 12.9 | 0.00 | 0.00 | 0.00 | 40 | 1019.2 |
| 20260502004528 | 11 | 333 | 8.0 | 12.9 | 0.00 | 0.00 | 0.00 | 39 | 1019.1 |
| 20260502004011 | 11 | 349 | 4.8 | 9.7 | 0.00 | 0.00 | 0.00 | 40 | 1019.2 |
| 20260502003511 | 11 | 330 | 4.8 | 9.7 | 0.00 | 0.00 | 0.00 | 40 | 1019.2 |
| 20260502003028 | 11 | 333 | 6.4 | 9.7 | 0.00 | 0.00 | 0.00 | 40 | 1019.1 |
| 20260502002511 | 11 | 321 | 4.8 | 8.0 | 0.00 | 0.00 | 0.00 | 41 | 1019.2 |
| 20260502002020 | 11 | 331 | 6.4 | 17.7 | 0.00 | 0.00 | 0.00 | 40 | 1019.2 |
| 20260502001528 | 11 | 329 | 4.8 | 17.7 | 0.00 | 0.00 | 0.00 | 41 | 1019.1 |
| 20260502001012 | 11 | 14 | 9.7 | 16.1 | 0.00 | 0.00 | 0.00 | 39 | 1019.2 |
| 20260502000510 | 11 | 340 | 9.7 | 19.3 | 0.00 | 0.00 | 0.00 | 39 | 1019.1 |
| 20260502000029 | 11 | 331 | 4.8 | 19.3 | 0.00 | 0.00 | 0.00 | 39 | 1019.1 |
| 20260501235514 | 11 | 347 | 9.7 | 19.3 | 0.00 | 0.00 | 0.00 | 39 | 1019.1 |
| 20260501235011 | 11 | 330 | 8.0 | 16.1 | 0.00 | 0.00 | 0.00 | 40 | 1019.2 |
| 20260501234545 | 11 | 1 | 9.7 | 16.1 | 0.00 | 0.00 | 0.00 | 38 | 1019.2 |
| 20260501234009 | 11 | 329 | 4.8 | 14.5 | 0.00 | 0.00 | 0.00 | 38 | 1019.2 |
| 20260501233520 | 12 | 338 | 4.8 | 14.5 | 0.00 | 0.00 | 0.00 | 38 | 1019.2 |
| 20260501233028 | 12 | 337 | 6.4 | 16.1 | 0.00 | 0.00 | 0.00 | 38 | 1019.2 |
| 20260501232516 | 11 | 330 | 6.4 | 17.7 | 0.00 | 0.00 | 0.00 | 40 | 1019.2 |
| 20260501232008 | 11 | 330 | 11.3 | 17.7 | 0.00 | 0.00 | 0.00 | 39 | 1019.2 |
| 20260501231543 | 11 | 331 | 9.7 | 17.7 | 0.00 | 0.00 | 0.00 | 38 | 1019.2 |
| 20260501231010 | 11 | 334 | 8.0 | 12.9 | 0.00 | 0.00 | 0.00 | 38 | 1019.2 |
| 20260501230512 | 11 | 309 | 6.4 | 17.7 | 0.00 | 0.00 | 0.00 | 40 | 1019.2 |
| 20260501230028 | 12 | 345 | 8.0 | 17.7 | 0.00 | 0.00 | 0.00 | 38 | 1019.3 |
| 20260501225512 | 11 | 317 | 11.3 | 17.7 | 0.00 | 0.00 | 0.00 | 38 | 1019.2 |
| 20260501225011 | 11 | 340 | 8.0 | 17.7 | 0.00 | 0.00 | 0.00 | 40 | 1019.2 |
| 20260501224527 | 11 | 328 | 9.7 | 19.3 | 0.00 | 0.00 | 0.00 | 41 | 1019.2 |
| 20260501224011 | 11 | 301 | 9.7 | 19.3 | 0.00 | 0.00 | 0.00 | 39 | 1019.2 |
| 20260501223511 | 12 | 360 | 11.3 | 19.3 | 0.00 | 0.00 | 0.00 | 37 | 1019.2 |
| 20260501223028 | 12 | 333 | 6.4 | 16.1 | 0.00 | 0.00 | 0.00 | 38 | 1019.2 |
| 20260501222512 | 11 | 336 | 8.0 | 16.1 | 0.00 | 0.00 | 0.00 | 38 | 1019.3 |
| 20260501222015 | 12 | 8 | 6.4 | 14.5 | 0.00 | 0.00 | 0.00 | 38 | 1019.1 |
| 20260501221531 | 12 | 340 | 9.7 | 19.3 | 0.00 | 0.00 | 0.00 | 37 | 1019.2 |
| 20260501221012 | 12 | 311 | 11.3 | 19.3 | 0.00 | 0.00 | 0.00 | 38 | 1019.2 |
| 20260501220510 | 11 | 315 | 11.3 | 17.7 | 0.00 | 0.00 | 0.00 | 39 | 1019.1 |
| 20260501220030 | 12 | 328 | 8.0 | 20.9 | 0.00 | 0.00 | 0.00 | 42 | 1019.2 |
| 20260501215511 | 12 | 314 | 3.2 | 22.5 | 0.00 | 0.00 | 0.00 | 38 | 1019.2 |
| 20260501215011 | 12 | 328 | 11.3 | 22.5 | 0.00 | 0.00 | 0.00 | 41 | 1019.2 |
| 20260501214544 | 12 | 317 | 11.3 | 22.5 | 0.00 | 0.00 | 0.00 | 42 | 1019.2 |
| 20260501214010 | 12 | 345 | 12.9 | 22.5 | 0.00 | 0.00 | 0.00 | 41 | 1019.2 |
| 20260501213510 | 12 | 348 | 8.0 | 19.3 | 0.00 | 0.00 | 0.00 | 41 | 1019.2 |
| 20260501213031 | 12 | 345 | 11.3 | 19.3 | 0.00 | 0.00 | 0.00 | 41 | 1019.1 |
| 20260501212511 | 12 | 330 | 9.7 | 17.7 | 0.00 | 0.00 | 0.00 | 43 | 1019.1 |
| 20260501212010 | 12 | 333 | 9.7 | 17.7 | 0.00 | 0.00 | 0.00 | 36 | 1019.2 |
| 20260501211529 | 12 | 4 | 4.8 | 16.1 | 0.00 | 0.00 | 0.00 | 40 | 1019.3 |
| 20260501211010 | 12 | 334 | 8.0 | 17.7 | 0.00 | 0.00 | 0.00 | 39 | 1019.3 |
| 20260501210509 | 12 | 342 | 6.4 | 17.7 | 0.00 | 0.00 | 0.00 | 43 | 1019.4 |
| 20260501210028 | 12 | 347 | 8.0 | 14.5 | 0.00 | 0.00 | 0.00 | 42 | 1019.3 |
| 20260501205510 | 11 | 345 | 4.8 | 16.1 | 0.00 | 0.00 | 0.00 | 40 | 1019.3 |
| 20260501205008 | 12 | 340 | 8.0 | 27.4 | 0.00 | 0.00 | 0.00 | 41 | 1019.4 |
| 20260501204528 | 11 | 358 | 9.7 | 27.4 | 0.00 | 0.00 | 0.00 | 43 | 1019.4 |
| 20260501204009 | 11 | 330 | 14.5 | 27.4 | 0.00 | 0.00 | 0.00 | 42 | 1019.3 |
| 20260501203509 | 11 | 323 | 8.0 | 17.7 | 0.00 | 0.00 | 0.00 | 43 | 1019.4 |
| 20260501203029 | 11 | 12 | 8.0 | 14.5 | 0.00 | 0.00 | 0.00 | 42 | 1019.5 |
| 20260501202511 | 11 | 83 | 6.4 | 14.5 | 0.00 | 0.00 | 0.00 | 41 | 1019.5 |
| 20260501202010 | 11 | 322 | 4.8 | 16.1 | 0.00 | 0.00 | 0.00 | 42 | 1019.6 |
| 20260501201527 | 11 | 340 | 8.0 | 17.7 | 0.00 | 0.00 | 0.00 | 41 | 1019.6 |
| 20260501201018 | 11 | 326 | 9.7 | 17.7 | 0.00 | 0.00 | 0.00 | 44 | 1019.5 |
| 20260501200523 | 11 | 337 | 9.7 | 24.1 | 0.00 | 0.00 | 0.00 | 43 | 1019.5 |
| 20260501200031 | 11 | 329 | 9.7 | 24.1 | 0.00 | 0.00 | 0.00 | 43 | 1019.6 |
| 20260501195514 | 11 | 346 | 12.9 | 24.1 | 0.00 | 0.00 | 0.00 | 46 | 1019.6 |
| 20260501195010 | 11 | 310 | 8.0 | 20.9 | 0.00 | 0.00 | 0.00 | 41 | 1019.6 |
| 20260501194533 | 11 | 338 | 6.4 | 20.9 | 0.00 | 0.00 | 0.00 | 47 | 1019.7 |
| 20260501194009 | 11 | 324 | 8.0 | 19.3 | 0.00 | 0.00 | 0.00 | 44 | 1019.8 |
| 20260501193511 | 11 | 338 | 4.8 | 12.9 | 0.00 | 0.00 | 0.00 | 45 | 1019.8 |
| 20260501193033 | 11 | 316 | 4.8 | 12.9 | 0.00 | 0.00 | 0.00 | 45 | 1019.8 |
| 20260501192511 | 11 | 7 | 6.4 | 12.9 | 0.00 | 0.00 | 0.00 | 46 | 1019.9 |
| 20260501192011 | 11 | 349 | 6.4 | 20.9 | 0.00 | 0.00 | 0.00 | 47 | 1019.9 |
| 20260501191551 | 11 | 321 | 8.0 | 20.9 | 0.00 | 0.00 | 0.00 | 47 | 1019.9 |
| 20260501191017 | 10 | 318 | 3.2 | 17.7 | 0.00 | 0.00 | 0.00 | 47 | 1019.9 |
| 20260501190513 | 10 | 14 | 8.0 | 17.7 | 0.00 | 0.00 | 0.00 | 45 | 1019.9 |
| 20260501190029 | 10 | 326 | 6.4 | 16.1 | 0.00 | 0.00 | 0.00 | 45 | 1019.9 |
| 20260501185511 | 10 | 350 | 6.4 | 22.5 | 0.00 | 0.00 | 0.00 | 47 | 1019.9 |
| 20260501185011 | 10 | 340 | 12.9 | 22.5 | 0.00 | 0.00 | 0.00 | 50 | 1020.0 |
| 20260501184530 | 10 | 330 | 4.8 | 20.9 | 0.00 | 0.00 | 0.00 | 50 | 1019.9 |
| 20260501184010 | 10 | 335 | 9.7 | 20.9 | 0.00 | 0.00 | 0.00 | 49 | 1019.9 |
| 20260501183510 | 10 | 328 | 11.3 | 19.3 | 0.00 | 0.00 | 0.00 | 47 | 1020.0 |
| 20260501183028 | 10 | 357 | 6.4 | 25.7 | 0.00 | 0.00 | 0.00 | 49 | 1020.0 |
| 20260501182512 | 10 | 2 | 11.3 | 25.7 | 0.00 | 0.00 | 0.00 | 49 | 1020.0 |
| 20260501182012 | 9 | 332 | 14.5 | 25.7 | 0.00 | 0.00 | 0.00 | 50 | 1020.0 |
| 20260501181533 | 9 | 335 | 9.7 | 17.7 | 0.00 | 0.00 | 0.00 | 48 | 1020.0 |
| 20260501181010 | 10 | 333 | 9.7 | 22.5 | 0.00 | 0.00 | 0.00 | 52 | 1020.1 |
| 20260501180513 | 10 | 345 | 8.0 | 22.5 | 0.00 | 0.00 | 0.00 | 51 | 1020.0 |
| 20260501180036 | 9 | 323 | 8.0 | 20.9 | 0.00 | 0.00 | 0.00 | 51 | 1020.1 |
| 20260501175511 | 9 | 333 | 11.3 | 20.9 | 0.00 | 0.00 | 0.00 | 54 | 1020.2 |
| 20260501175012 | 9 | 323 | 8.0 | 19.3 | 0.00 | 0.00 | 0.00 | 50 | 1020.2 |
| 20260501174528 | 9 | 326 | 9.7 | 19.3 | 0.00 | 0.00 | 0.00 | 49 | 1020.2 |
| 20260501174011 | 9 | 357 | 6.4 | 19.3 | 0.00 | 0.00 | 0.00 | 51 | 1020.2 |
| 20260501173511 | 8 | 325 | 14.5 | 25.7 | 0.00 | 0.00 | 0.00 | 50 | 1020.2 |
| 20260501173036 | 8 | 7 | 11.3 | 29.0 | 0.00 | 0.00 | 0.00 | 50 | 1020.3 |
| 20260501172513 | 8 | 326 | 8.0 | 29.0 | 0.00 | 0.00 | 0.00 | 52 | 1020.2 |
| 20260501172012 | 8 | 350 | 12.9 | 29.0 | 0.00 | 0.00 | 0.00 | 52 | 1020.3 |
| 20260501171538 | 8 | 341 | 16.1 | 27.4 | 0.00 | 0.00 | 0.00 | 51 | 1020.2 |
| 20260501171011 | 8 | 359 | 12.9 | 24.1 | 0.00 | 0.00 | 0.00 | 51 | 1020.2 |
| 20260501170509 | 8 | 356 | 11.3 | 22.5 | 0.00 | 0.00 | 0.00 | 52 | 1020.2 |
| 20260501170031 | 8 | 314 | 9.7 | 29.0 | 0.00 | 0.00 | 0.00 | 53 | 1020.2 |
| 20260501165511 | 8 | 345 | 16.1 | 29.0 | 0.00 | 0.00 | 0.00 | 52 | 1020.2 |
| 20260501165018 | 8 | 345 | 11.3 | 20.9 | 0.00 | 0.00 | 0.00 | 52 | 1020.3 |
| 20260501164535 | 7 | 339 | 12.9 | 24.1 | 0.00 | 0.00 | 0.00 | 55 | 1020.2 |
| 20260501164010 | 8 | 333 | 12.9 | 24.1 | 0.00 | 0.00 | 0.00 | 53 | 1020.1 |
| 20260501163512 | 7 | 328 | 14.5 | 24.1 | 0.00 | 0.00 | 0.00 | 53 | 1020.2 |
| 20260501163030 | 8 | 349 | 12.9 | 22.5 | 0.00 | 0.00 | 0.00 | 55 | 1020.1 |
| 20260501162513 | 7 | 5 | 11.3 | 22.5 | 0.00 | 0.00 | 0.00 | 53 | 1020.2 |
| 20260501162011 | 7 | 11 | 11.3 | 24.1 | 0.00 | 0.00 | 0.00 | 52 | 1020.1 |
| 20260501161528 | 7 | 333 | 12.9 | 24.1 | 0.00 | 0.00 | 0.00 | 53 | 1020.2 |
| 20260501161012 | 7 | 333 | 11.3 | 25.7 | 0.00 | 0.00 | 0.00 | 54 | 1020.1 |
| 20260501160516 | 6 | 338 | 17.7 | 25.7 | 0.00 | 0.00 | 0.00 | 56 | 1020.1 |
| 20260501160043 | 7 | 322 | 11.3 | 25.7 | 0.00 | 0.00 | 0.00 | 55 | 1020.2 |
| 20260501155511 | 7 | 329 | 16.1 | 29.0 | 0.00 | 0.00 | 0.00 | 57 | 1020.1 |
| 20260501155015 | 7 | 342 | 12.9 | 29.0 | 0.00 | 0.00 | 0.00 | 57 | 1020.1 |
| 20260501154535 | 7 | 340 | 16.1 | 29.0 | 0.00 | 0.00 | 0.00 | 59 | 1020.1 |
| 20260501154008 | 6 | 323 | 12.9 | 27.4 | 0.00 | 0.00 | 0.00 | 58 | 1020.1 |
| 20260501153509 | 6 | 345 | 16.1 | 30.6 | 0.00 | 0.00 | 0.00 | 55 | 1020.1 |
| 20260501153028 | 6 | 337 | 12.9 | 30.6 | 0.00 | 0.00 | 0.00 | 57 | 1020.1 |
| 20260501152508 | 6 | 314 | 11.3 | 20.9 | 0.00 | 0.00 | 0.00 | 58 | 1020.1 |
| 20260501152009 | 6 | 326 | 12.9 | 20.9 | 0.00 | 0.00 | 0.00 | 59 | 1020.1 |
| 20260501151539 | 6 | 311 | 8.0 | 14.5 | 0.00 | 0.00 | 0.00 | 58 | 1020.1 |
| 20260501151007 | 6 | 4 | 6.4 | 22.5 | 0.00 | 0.00 | 0.00 | 57 | 1020.1 |
| 20260501150511 | 6 | 322 | 11.3 | 22.5 | 0.00 | 0.00 | 0.00 | 57 | 1020.2 |
| 20260501150026 | 6 | 335 | 9.7 | 22.5 | 0.00 | 0.00 | 0.00 | 59 | 1020.1 |
| 20260501145510 | 6 | 10 | 12.9 | 20.9 | 0.00 | 0.00 | 0.00 | 59 | 1020.1 |
| 20260501145009 | 6 | 13 | 8.0 | 19.3 | 0.00 | 0.00 | 0.00 | 62 | 1020.0 |
| 20260501144530 | 6 | 357 | 6.4 | 19.3 | 0.00 | 0.00 | 0.00 | 60 | 1020.2 |
| 20260501144011 | 6 | 337 | 9.7 | 19.3 | 0.00 | 0.00 | 0.00 | 61 | 1020.2 |
| 20260501143510 | 6 | 325 | 6.4 | 19.3 | 0.00 | 0.00 | 0.00 | 63 | 1020.2 |
| 20260501143028 | 5 | 352 | 9.7 | 20.9 | 0.00 | 0.00 | 0.00 | 64 | 1020.2 |
| 20260501142508 | 5 | 348 | 11.3 | 22.5 | 0.00 | 0.00 | 0.00 | 64 | 1020.3 |
| 20260501142015 | 5 | 346 | 12.9 | 22.5 | 0.00 | 0.00 | 0.00 | 65 | 1020.1 |
| 20260501141528 | 5 | 311 | 6.4 | 17.7 | 0.00 | 0.00 | 0.00 | 69 | 1020.1 |
| 20260501141009 | 5 | 335 | 9.7 | 17.7 | 0.00 | 0.00 | 0.00 | 68 | 1020.0 |
| 20260501140509 | 5 | 340 | 6.4 | 17.7 | 0.00 | 0.00 | 0.00 | 68 | 1020.1 |
| 20260501140028 | 5 | 13 | 11.3 | 17.7 | 0.00 | 0.00 | 0.00 | 69 | 1020.0 |
| 20260501135510 | 4 | 345 | 8.0 | 14.5 | 0.00 | 0.00 | 0.00 | 70 | 1020.0 |